This is the latest recevied weather packets stored in our database for station/object N4MGC. If no packets are shown the sender has not sent any weather packets the latest 1 day(s).
| Time | Temp. | Humidity | Pressure | Rain* | Wind** | Luminosity | Snow |
|---|---|---|---|---|---|---|---|
| 1778030199 | 20.56° C | 82% | 1010.7 hPa | 0 mm | 0 m/s | 0 W/m² | - |
| 1778029896 | 20.56° C | 83% | 1010.7 hPa | 0 mm | 0 m/s | 0 W/m² | - |
| 1778029595 | 20.56° C | 80% | 1011 hPa | 0 mm | 0 m/s | 0 W/m² | - |
| 1778029291 | 21.11° C | 80% | 1011.1 hPa | 0 mm | 0 m/s | 0 W/m² | - |
| 1778028988 | 21.11° C | 79% | 1011.1 hPa | 0 mm | 0 m/s | 0 W/m² | - |
| 1778028685 | 21.11° C | 79% | 1010.7 hPa | 0 mm | 0 m/s | 0 W/m² | - |
| 1778028381 | 21.11° C | 78% | 1011.2 hPa | 0 mm | 0 m/s | 0 W/m² | - |
| 1778028079 | 21.67° C | 77% | 1010.9 hPa | 0 mm | 0 m/s | 0 W/m² | - |
| 1778027775 | 21.67° C | 76% | 1011 hPa | 0 mm | 0 m/s | 0 W/m² | - |
| 1778027471 | 21.67° C | 76% | 1011.2 hPa | 0 mm | 0 m/s | 0 W/m² | - |
| 1778027167 | 21.67° C | 76% | 1011.1 hPa | 0 mm | 0 m/s | 3 W/m² | - |
| 1778026863 | 22.22° C | 74% | 1010.8 hPa | 0 mm | 0 m/s | 8 W/m² | - |
| 1778026559 | 22.22° C | 74% | 1010.9 hPa | 0 mm | 0 m/s | 11 W/m² | - |
| 1778026256 | 22.22° C | 73% | 1010.7 hPa | 0 mm | 0 m/s | 14 W/m² | - |
| 1778025954 | 22.22° C | 74% | 1010.7 hPa | 0 mm | 0 m/s | 16 W/m² | - |
| 1778025651 | 22.78° C | 75% | 1010.9 hPa | 0 mm | 0 m/s | 22 W/m² | - |
| 1778025349 | 22.78° C | 72% | 1010.8 hPa | 0 mm | 0 m/s | 27 W/m² | - |
| 1778025046 | 22.78° C | 72% | 1011 hPa | 0 mm | 0 m/s | 35 W/m² | - |
| 1778024743 | 22.78° C | 72% | 1011.1 hPa | 0 mm | 0 m/s | 34 W/m² | - |
| 1778024439 | 22.78° C | 72% | 1011 hPa | 0 mm | 0 m/s | 25 W/m² | - |
| 1778024137 | 22.78° C | 71% | 1011.1 hPa | 0 mm | 0 m/s | 35 W/m² | - |
| 1778023834 | 22.78° C | 72% | 1011 hPa | 0 mm | 0 m/s | 31 W/m² | - |
| 1778023532 | 22.78° C | 71% | 1011.3 hPa | 0 mm | 0 m/s | 27 W/m² | - |
| 1778023229 | 22.78° C | 72% | 1011.5 hPa | 0 mm | 0 m/s | 18 W/m² | - |
| 1778022926 | 22.78° C | 71% | 1011.6 hPa | 0 mm | 0 m/s | 20 W/m² | - |
* Rain latest hour (hover to see other rain measurements)
** Current wind speed in m/s (hover to see current wind gust speed)